Powrót do katalogu

DELTA 1 DEB

AktywnyLEO
NORAD 21674·DEBRIS·🇺🇸 United States

Wystrzelony Jun 12, 1975 z Vandenberg Space Force Base

Loading…

Następne Przeloty (najbliższe 24 godziny)

TLE

ŚwieżeSource: Space-Track

Epoka: Sep 14, 2026, 04:58 UTC

1 21674U 75052JA  26257.20701557  .00003467  00000-0  75509-3 0  9997
2 21674 100.0533 167.4172 0096079 237.7499 121.4354 14.55996502823845

Śledź DELTA 1 DEB w czasie rzeczywistym z AllMySat

Download on the App Store